Wind_Speed
29 29 28 27 25 23 21 19 18 18 17 17 16 15 14 13 12 12 10 9 9 9 10 9 7 7 7 7 8 8 9 9 10 9 8 8 7 7 7 7 8 9
31 30 30 28 26 24 21 19 18 17 17 16 15 14 14 13 13 12 10 8 9 9 10 9 8 8 8 9 9 10 10 11 11 10 10 9 9 8 8 8 9 10
33 33 31 29 27 24 21 19 18 17 16 16 15 14 14 14 14 12 10 8 9 10 10 10 9 10 10 10 10 11 11 11 11 12 12 11 11 10 9 9 10 11
35 34 33 30 27 24 22 20 19 18 17 16 16 15 15 14 14 12 10 10 10 11 11 11 11 11 11 11 11 11 12 12 12 13 13 13 12 11 10 10 10 11
36 35 34 31 28 26 24 22 20 18 18 17 17 16 16 15 14 13 12 12 12 12 13 13 12 12 13 12 12 12 12 12 13 13 14 13 12 11 10 10 11 11
37 37 35 33 30 28 25 22 20 19 18 18 18 17 17 16 15 14 14 14 13 14 15 14 14 14 13 13 12 13 13 12 13 13 13 12 11 11 10 11 12 12
39 38 37 35 32 29 26 23 21 20 19 18 18 18 17 17 16 15 15 15 15 15 16 16 16 15 14 13 14 14 13 13 13 13 13 12 11 11 11 12 13 13
40 39 38 36 34 31 28 26 24 22 20 19 18 18 18 17 16 15 16 16 16 17 17 18 17 16 15 14 14 14 14 13 13 13 12 12 12 12 12 12 13 13
40 39 39 38 37 35 31 28 26 23 21 20 19 18 19 18 16 15 16 18 18 19 19 20 19 17 16 15 15 14 14 13 13 13 13 13 13 13 12 12 12 13
40 40 42 42 40 38 34 31 28 25 23 22 19 19 19 17 15 15 17 19 20 21 21 21 20 18 16 15 15 15 15 14 13 14 14 14 14 13 13 12 12 13
42 44 46 45 43 40 36 34 31 28 26 23 21 20 19 15 15 16 18 20 22 22 22 22 20 18 16 16 16 15 15 15 15 15 15 15 14 13 13 12 12 13
48 50 49 47 46 44 41 38 35 32 29 26 24 23 19 15 17 20 20 23 24 23 23 22 20 18 17 16 17 16 16 16 16 16 16 15 15 13 12 13 13 14
49 52 52 51 50 47 44 41 38 35 32 30 29 26 22 20 22 24 23 25 26 25 24 23 20 19 19 18 18 17 18 18 18 18 17 16 15 14 13 13 13 14
49 51 53 55 54 50 48 44 40 37 36 34 31 29 27 26 26 27 27 27 28 27 25 24 22 21 21 20 19 18 18 19 18 18 17 16 15 14 13 13 13 15
51 49 50 55 56 52 48 43 40 38 37 35 32 30 29 28 27 29 30 29 29 29 28 25 24 24 22 20 19 18 18 18 18 17 16 16 14 13 13 14 15 16
50 48 47 51 53 49 46 44 41 40 40 38 33 30 27 27 28 32 33 32 31 31 30 28 27 25 23 21 19 18 18 18 17 17 16 15 14 14 15 17 18 18
47 46 45 46 49 49 51 52 47 44 44 40 34 28 25 26 32 36 36 34 33 33 32 30 29 26 23 21 19 18 18 18 18 17 16 16 16 17 18 19 20 21
44 44 43 44 46 49 52 56 54 52 50 43 36 32 29 31 38 40 37 36 35 34 33 32 30 27 24 22 21 20 20 20 20 19 18 19 19 20 21 22 24 24
41 42 42 42 44 46 48 52 55 57 55 48 43 39 36 38 43 42 39 39 37 34 34 33 31 28 25 24 23 22 22 22 22 21 21 21 22 22 23 24 26 27
38 39 40 41 42 44 46 49 52 55 55 50 46 44 41 41 43 41 40 40 37 35 35 34 32 29 26 25 24 22 22 23 23 23 22 22 23 24 26 27 28 29
35 37 39 40 41 42 44 46 49 52 54 48 45 46 43 39 40 42 42 40 37 35 35 34 32 30 27 26 24 22 22 23 24 25 24 24 24 25 27 28 27 25
32 34 37 38 39 41 42 44 47 51 52 46 43 45 41 37 40 43 42 39 37 35 35 34 33 30 28 26 24 22 22 24 25 26 27 27 25 24 27 27 24 21
29 31 34 35 37 39 39 41 44 47 45 40 40 43 39 35 39 43 41 38 36 34 34 34 32 30 29 27 24 23 24 26 26 28 30 28 22 21 25 24 21 20
26 28 31 33 34 35 36 38 41 42 38 35 39 42 38 34 38 42 40 36 34 34 34 33 31 31 30 28 26 26 26 28 28 29 31 28 23 23 24 22 19 19
23 26 28 30 31 32 33 36 38 37 35 33 36 39 37 35 38 41 38 35 33 33 33 31 30 29 29 29 29 29 29 30 31 31 32 29 25 23 21 19 20 21
22 24 27 28 29 29 31 33 35 35 33 31 33 35 34 33 36 38 35 33 32 31 31 30 28 28 29 29 30 31 32 33 31 29 29 26 21 19 19 19 21 22
Wind_Direction
232 232 233 234 235 237 238 241 245 248 250 250 251 253 254 255 252 245 240 230 221 217 218 225 234 245 249 250 255 256 252 248 247 251 254 256 261 265 271 277 278 279
231 231 232 233 233 235 237 239 244 250 253 253 253 256 256 254 249 243 238 229 222 217 216 223 236 246 249 251 253 252 251 250 250 254 256 259 264 269 275 281 281 282
230 230 231 231 230 232 235 237 240 244 247 248 249 251 252 251 247 244 241 236 228 222 221 227 239 245 247 249 251 251 252 253 254 256 258 260 264 269 272 274 276 281
229 230 230 229 228 229 233 236 239 240 240 240 241 245 248 247 245 244 245 241 233 228 228 232 239 243 243 245 247 250 253 255 257 258 259 261 264 265 267 270 274 279
230 230 229 228 226 225 228 230 235 240 240 239 240 243 246 246 244 245 247 245 238 233 233 235 238 241 241 244 247 250 251 254 256 257 257 259 259 262 265 270 274 278
230 230 228 227 226 226 227 228 231 236 238 238 240 243 246 245 245 247 248 245 239 236 236 235 237 239 241 245 249 251 250 251 254 255 254 255 256 260 266 271 277 281
228 228 227 227 228 228 227 227 230 232 234 236 238 241 244 244 244 247 247 242 237 235 236 235 236 237 240 245 248 247 247 249 252 250 248 251 255 263 270 275 280 284
229 229 228 228 229 228 226 225 228 230 231 232 235 240 243 244 244 245 243 239 235 234 234 234 235 236 237 242 244 244 245 248 247 244 245 253 261 268 274 278 281 286
231 231 232 232 231 230 228 227 229 230 230 230 233 238 240 241 243 245 242 238 234 234 233 232 234 235 236 240 243 244 246 246 243 243 249 258 266 271 275 278 283 288
234 231 231 232 232 232 231 230 229 228 228 227 228 229 231 235 239 243 244 240 236 233 231 231 234 235 237 241 245 246 246 245 244 247 254 262 269 272 274 278 283 287
233 230 230 231 233 233 232 230 229 227 226 223 220 221 225 232 242 245 243 242 240 235 231 232 233 235 238 242 246 247 247 247 249 254 260 265 269 271 274 278 281 284
229 229 230 230 231 232 231 230 228 226 224 220 218 219 223 236 251 252 246 243 243 237 233 234 234 235 238 242 245 247 248 250 254 259 262 264 267 270 272 276 279 283
231 229 230 229 229 229 231 232 229 226 225 221 218 218 221 233 247 251 246 242 242 238 235 235 236 237 239 241 245 247 250 254 258 261 263 263 265 267 270 274 280 284
238 235 231 230 230 230 231 232 230 227 225 223 220 216 221 234 243 246 246 243 240 239 237 236 236 238 240 242 246 249 253 257 259 260 262 264 265 267 271 276 279 281
245 240 234 232 233 231 230 232 230 224 222 224 220 215 227 241 241 240 244 242 238 239 239 236 236 238 240 242 246 251 255 256 257 258 260 263 266 268 272 276 277 278
248 244 238 234 231 228 227 230 229 224 223 223 216 216 233 244 238 237 241 238 235 237 238 236 236 237 239 242 246 250 253 252 252 253 256 259 263 267 271 275 275 274
249 247 242 235 229 226 227 228 228 227 223 214 208 217 235 241 241 243 241 236 234 235 237 237 236 237 238 240 244 247 249 249 249 251 254 256 261 266 271 274 274 273
250 249 245 236 230 229 228 225 225 228 226 215 208 219 231 237 243 245 239 235 234 234 236 238 236 236 238 240 242 244 245 248 250 252 255 258 263 268 272 275 276 274
251 250 246 238 232 231 229 225 222 224 227 223 219 221 225 230 238 239 233 232 233 232 235 238 238 238 238 239 242 244 245 247 250 253 258 262 267 271 274 277 278 277
252 251 247 240 234 231 231 231 227 223 224 225 222 220 223 229 234 233 229 230 232 233 235 238 240 239 239 240 243 244 246 247 250 254 258 263 269 273 276 278 280 281
253 251 247 241 236 234 234 235 232 226 226 229 224 218 223 231 231 228 228 230 232 233 235 238 241 241 241 242 243 246 248 250 253 255 258 263 268 273 278 281 283 283
253 249 245 243 239 237 236 236 234 231 231 234 230 222 225 233 228 224 227 230 232 235 237 239 241 242 242 243 245 248 250 253 256 260 263 265 266 272 279 282 282 280
252 248 245 244 241 240 241 240 239 235 232 234 232 226 229 234 228 224 227 230 233 237 239 241 244 246 247 249 250 251 254 259 264 268 269 265 265 275 281 280 277 277
251 248 246 244 243 246 246 243 239 234 231 234 232 229 233 237 231 227 229 231 235 240 243 245 248 250 253 255 255 256 259 263 267 270 268 267 273 281 279 274 275 278
249 247 246 244 246 249 247 242 238 232 231 238 237 233 237 240 232 229 231 233 238 242 244 248 251 253 257 261 261 261 262 264 266 266 264 268 280 282 272 268 275 279
247 246 244 243 247 249 244 238 233 229 233 241 240 236 238 238 233 232 235 238 242 246 250 254 257 257 260 264 266 266 266 267 267 265 266 271 274 267 263 268 275 279
Height
1544 1545 1546 1548 1549 1550 1551 1551 1552 1552 1553 1554 1554 1555 1556 1556 1557 1557 1557 1557 1558 1559 1560 1561 1562 1563 1563 1564 1564 1564 1565 1565 1565 1565 1565 1566 1566 1567 1567 1568 1568 1569
1541 1543 1544 1545 1546 1548 1548 1549 1550 1551 1552 1553 1554 1555 1556 1556 1556 1556 1556 1556 1557 1557 1559 1560 1561 1561 1562 1562 1563 1563 1563 1564 1564 1564 1564 1564 1564 1565 1565 1566 1566 1567
1538 1539 1541 1542 1544 1545 1546 1547 1548 1549 1550 1551 1552 1553 1554 1555 1555 1555 1556 1556 1556 1557 1558 1559 1560 1560 1561 1561 1561 1562 1562 1562 1563 1563 1563 1563 1563 1563 1563 1563 1564 1564
1534 1536 1538 1540 1541 1542 1543 1545 1546 1547 1548 1549 1550 1551 1552 1553 1554 1554 1555 1556 1556 1557 1557 1558 1559 1559 1560 1560 1560 1561 1561 1562 1562 1562 1562 1562 1561 1561 1561 1561 1561 1561
1531 1533 1535 1537 1538 1538 1540 1542 1544 1545 1546 1547 1548 1548 1549 1550 1551 1552 1554 1555 1555 1556 1556 1557 1558 1558 1559 1559 1559 1560 1560 1561 1561 1561 1561 1560 1560 1560 1559 1559 1559 1559
1528 1531 1533 1534 1535 1536 1538 1540 1541 1542 1543 1544 1545 1546 1546 1547 1548 1550 1551 1553 1554 1555 1555 1556 1557 1557 1558 1558 1558 1558 1559 1559 1560 1559 1559 1559 1559 1558 1558 1558 1557 1557
1525 1528 1530 1532 1533 1535 1536 1537 1537 1538 1539 1541 1542 1543 1544 1545 1546 1547 1549 1551 1552 1553 1554 1554 1555 1555 1556 1556 1556 1556 1557 1557 1557 1557 1557 1557 1557 1557 1556 1556 1555 1555
1523 1526 1528 1530 1531 1532 1533 1533 1534 1536 1537 1538 1540 1541 1543 1544 1544 1546 1547 1548 1549 1550 1551 1552 1553 1553 1554 1553 1553 1554 1554 1555 1556 1556 1556 1556 1555 1555 1555 1554 1553 1553
1522 1525 1526 1527 1528 1529 1531 1532 1533 1535 1536 1537 1538 1540 1542 1543 1544 1544 1545 1546 1547 1548 1549 1550 1550 1551 1551 1551 1551 1552 1553 1553 1554 1554 1554 1554 1554 1553 1553 1552 1552 1551
1521 1522 1521 1522 1524 1526 1529 1530 1531 1533 1534 1534 1536 1538 1540 1542 1543 1543 1544 1545 1545 1546 1547 1547 1548 1548 1549 1549 1550 1550 1551 1551 1552 1552 1552 1552 1552 1551 1551 1550 1550 1550
1518 1517 1516 1518 1521 1523 1526 1527 1528 1529 1530 1531 1533 1536 1538 1540 1542 1543 1544 1544 1544 1544 1545 1545 1546 1546 1547 1547 1548 1548 1549 1549 1550 1550 1550 1550 1550 1549 1549 1548 1548 1548
1510 1509 1511 1514 1516 1518 1520 1522 1523 1525 1528 1529 1530 1532 1535 1537 1539 1541 1542 1543 1543 1543 1543 1543 1544 1544 1544 1545 1546 1546 1547 1547 1548 1548 1548 1548 1547 1547 1547 1546 1546 1546
1503 1505 1507 1510 1511 1512 1515 1517 1520 1523 1525 1527 1527 1529 1531 1533 1535 1538 1539 1540 1541 1541 1541 1542 1542 1542 1542 1543 1544 1544 1544 1545 1545 1545 1545 1545 1545 1544 1544 1544 1544 1544
1497 1500 1503 1505 1507 1509 1511 1514 1518 1520 1522 1525 1526 1526 1527 1530 1532 1535 1536 1538 1540 1540 1540 1540 1540 1540 1540 1541 1541 1542 1542 1543 1543 1543 1543 1542 1542 1542 1542 1542 1542 1542
1491 1495 1498 1500 1503 1505 1509 1514 1517 1518 1520 1524 1526 1525 1525 1527 1530 1533 1534 1535 1537 1537 1538 1538 1537 1537 1538 1538 1539 1540 1540 1540 1540 1540 1540 1540 1540 1540 1539 1539 1539 1539
1486 1490 1494 1497 1498 1502 1510 1515 1516 1516 1517 1520 1523 1523 1524 1525 1528 1530 1530 1531 1533 1534 1534 1535 1534 1534 1535 1535 1536 1537 1538 1538 1538 1538 1538 1538 1538 1537 1537 1537 1537 1536
1484 1486 1490 1494 1494 1498 1505 1508 1510 1511 1511 1514 1519 1521 1522 1524 1526 1526 1527 1527 1529 1530 1530 1531 1530 1531 1532 1533 1534 1535 1535 1536 1536 1536 1536 1536 1535 1535 1534 1534 1534 1533
1481 1483 1486 1490 1491 1492 1496 1499 1502 1506 1507 1510 1515 1516 1517 1522 1523 1521 1523 1524 1525 1526 1526 1527 1527 1528 1529 1530 1531 1532 1533 1533 1533 1534 1533 1533 1532 1532 1531 1531 1530 1530
1478 1480 1483 1486 1488 1489 1492 1493 1495 1499 1502 1506 1510 1510 1512 1516 1517 1517 1519 1520 1520 1521 1522 1523 1524 1525 1526 1527 1528 1529 1530 1531 1531 1531 1530 1530 1530 1529 1529 1528 1528 1527
1475 1478 1480 1483 1485 1487 1489 1489 1490 1492 1495 1499 1503 1505 1507 1509 1511 1513 1514 1515 1516 1517 1518 1519 1520 1522 1524 1525 1525 1526 1527 1528 1528 1528 1528 1527 1527 1527 1526 1526 1525 1525
1472 1475 1477 1480 1482 1484 1485 1486 1487 1488 1490 1493 1497 1500 1502 1504 1507 1509 1509 1511 1513 1514 1516 1516 1517 1519 1521 1522 1523 1524 1525 1525 1525 1525 1525 1525 1525 1524 1523 1523 1522 1521
1469 1472 1474 1476 1479 1481 1482 1483 1483 1483 1485 1490 1493 1496 1499 1501 1503 1504 1505 1508 1510 1512 1513 1514 1514 1516 1519 1520 1521 1523 1523 1523 1523 1523 1523 1522 1522 1521 1521 1520 1519 1518
1467 1469 1472 1474 1476 1478 1479 1479 1479 1481 1484 1488 1490 1492 1495 1497 1499 1500 1502 1504 1507 1509 1511 1511 1513 1515 1517 1519 1520 1521 1521 1520 1521 1521 1520 1518 1519 1519 1518 1517 1516 1515
1465 1467 1469 1471 1473 1474 1475 1476 1477 1479 1483 1485 1487 1489 1492 1494 1496 1497 1499 1502 1504 1507 1508 1509 1512 1514 1515 1517 1518 1518 1518 1518 1517 1517 1514 1514 1517 1517 1515 1515 1514 1512
1463 1465 1466 1468 1470 1471 1472 1474 1475 1478 1481 1483 1485 1487 1490 1491 1492 1494 1496 1499 1501 1504 1506 1508 1511 1512 1514 1515 1515 1516 1515 1514 1513 1512 1510 1511 1513 1513 1512 1512 1511 1509
1460 1462 1463 1465 1466 1468 1470 1472 1474 1477 1480 1481 1483 1485 1487 1488 1489 1491 1494 1496 1499 1501 1503 1506 1508 1510 1511 1512 1513 1513 1513 1511 1510 1509 1508 1508 1509 1509 1509 1509 1508 1506